Time,TemperatureF,DewpointF,PressureIn,WindDirection,WindDirectionDegrees,WindSpeedMPH,WindSpeedGustMPH,Humidity,HourlyPrecipIn,Conditions,Clouds,dailyrainin,SoftwareType,DateUTC
2013-01-08 00:00:00,73.4,70.3,30.11,East,90,5.8,5.9,90,0.00,CLR,,0.20,WeatherDisplay:10.37,2013-01-08 05:00:00,
2013-01-08 00:03:00,73.8,70.4,30.11,SSE,158,7.8,7.8,89,0.00,RA,,0.00,WeatherDisplay:10.37,2013-01-08 05:03:00,
2013-01-08 00:04:00,73.8,70.4,30.11,SE,135,9.2,9.2,89,0.00,RA,,0.00,WeatherDisplay:10.37,2013-01-08 05:04:00,
2013-01-08 00:09:00,73.8,70.4,30.11,ESE,112,5.8,5.8,89,0.00,RA,,0.00,WeatherDisplay:10.37,2013-01-08 05:09:00,
2013-01-08 00:14:00,73.6,70.5,30.11,ESE,112,5.8,5.8,90,0.00,CLR,,0.00,WeatherDisplay:10.37,2013-01-08 05:14:00,
2013-01-08 00:19:00,73.6,70.5,30.11,ESE,112,7.3,7.3,90,0.00,CLR,,0.00,WeatherDisplay:10.37,2013-01-08 05:19:00,
2013-01-08 00:24:00,73.8,70.7,30.11,SSE,158,7.3,7.3,90,0.00,CLR,,0.00,WeatherDisplay:10.37,2013-01-08 05:24:00,
2013-01-08 00:29:00,73.8,70.7,30.11,East,90,6.9,6.9,90,0.00,CLR,,0.00,WeatherDisplay:10.37,2013-01-08 05:29:00,
2013-01-08 00:34:00,73.8,70.7,30.11,ESE,112,6.9,6.9,90,0.00,CLR,,0.00,WeatherDisplay:10.37,2013-01-08 05:34:00,
2013-01-08 00:39:00,73.8,70.7,30.10,ESE,112,5.8,5.8,90,0.00,CLR,,0.00,WeatherDisplay:10.37,2013-01-08 05:39:00,
2013-01-08 00:44:00,73.8,70.7,30.10,ESE,112,9.2,9.2,90,0.00,CLR,,0.00,WeatherDisplay:10.37,2013-01-08 05:44:00,
2013-01-08 00:49:00,73.8,70.7,30.10,SSE,158,6.9,6.9,90,0.00,CLR,,0.00,WeatherDisplay:10.37,2013-01-08 05:49:00,
2013-01-08 00:54:00,73.8,70.7,30.10,ESE,112,6.9,6.9,90,0.00,CLR,,0.00,WeatherDisplay:10.37,2013-01-08 05:54:00,
2013-01-08 00:59:00,74.1,71.0,30.10,ESE,112,10.9,10.9,90,0.00,CLR,,0.00,WeatherDisplay:10.37,2013-01-08 05:59:00,
2013-01-08 01:04:00,74.1,71.3,30.10,East,90,7.3,7.3,91,0.00,CLR,,0.00,WeatherDisplay:10.37,2013-01-08 06:04:00,
2013-01-08 01:09:00,74.1,71.3,30.10,SE,135,6.9,6.9,91,0.00,CLR,,0.00,WeatherDisplay:10.37,2013-01-08 06:09:00,
2013-01-08 01:14:00,74.1,71.3,30.10,ENE,68,6.9,6.9,91,0.00,CLR,,0.00,WeatherDisplay:10.37,2013-01-08 06:14:00,
2013-01-08 01:19:00,74.1,71.0,30.10,ESE,112,9.2,9.2,90,0.00,CLR,,0.00,WeatherDisplay:10.37,2013-01-08 06:19:00,
2013-01-08 01:24:00,74.1,71.0,30.10,ESE,112,8.1,8.1,90,0.00,CLR,,0.00,WeatherDisplay:10.37,2013-01-08 06:24:00,
2013-01-08 01:29:00,74.1,71.0,30.09,ESE,112,6.3,6.3,90,0.00,CLR,,0.00,WeatherDisplay:10.37,2013-01-08 06:29:00,
2013-01-08 01:34:00,73.9,70.8,30.09,ENE,68,9.2,9.2,90,0.00,CLR,,0.00,WeatherDisplay:10.37,2013-01-08 06:34:00,
2013-01-08 01:39:00,74.1,71.0,30.10,NE,45,10.4,10.4,90,0.00,CLR,,0.00,WeatherDisplay:10.37,2013-01-08 06:39:00,
2013-01-08 01:44:00,73.9,70.8,30.10,NE,45,5.8,5.8,90,0.00,CLR,,0.00,WeatherDisplay:10.37,2013-01-08 06:44:00,
2013-01-08 01:49:00,74.1,71.0,30.10,ESE,112,9.4,9.4,90,0.00,CLR,,0.00,WeatherDisplay:10.37,2013-01-08 06:49:00,
2013-01-08 01:54:00,73.9,70.8,30.08,SE,135,9.2,9.2,90,0.00,CLR,,0.00,WeatherDisplay:10.37,2013-01-08 06:54:00,
2013-01-08 01:59:00,74.1,71.0,30.08,ESE,112,13.0,13.0,90,0.00,CLR,,0.00,WeatherDisplay:10.37,2013-01-08 06:59:00,
2013-01-08 02:04:00,73.8,71.3,30.09,ESE,112,7.3,7.3,92,0.00,CLR,,0.00,WeatherDisplay:10.37,2013-01-08 07:04:00,
2013-01-08 02:09:00,73.8,71.3,30.09,ESE,112,10.4,10.4,92,0.00,CLR,,0.00,WeatherDisplay:10.37,2013-01-08 07:09:00,
2013-01-08 02:14:00,73.6,71.1,30.09,ESE,112,11.5,11.5,92,0.00,CLR,,0.00,WeatherDisplay:10.37,2013-01-08 07:14:00,
2013-01-08 02:19:00,73.6,71.1,30.09,ESE,112,10.4,10.4,92,0.00,CLR,,0.00,WeatherDisplay:10.37,2013-01-08 07:19:00,
2013-01-08 02:24:00,73.6,71.1,30.09,ESE,112,6.9,6.9,92,0.00,CLR,,0.00,WeatherDisplay:10.37,2013-01-08 07:24:00,
2013-01-08 02:29:00,73.4,70.9,30.08,ESE,112,4.6,4.6,92,0.00,CLR,,0.00,WeatherDisplay:10.37,2013-01-08 07:29:00,
2013-01-08 02:34:00,73.4,71.3,30.08,ESE,112,10.4,10.4,93,0.00,CLR,,0.00,WeatherDisplay:10.37,2013-01-08 07:34:00,
2013-01-08 02:39:00,73.2,71.1,30.08,SSE,158,4.6,4.6,93,0.00,CLR,,0.00,WeatherDisplay:10.37,2013-01-08 07:39:00,
2013-01-08 02:44:00,73.4,71.3,30.08,SSE,158,4.6,4.6,93,0.00,CLR,,0.00,WeatherDisplay:10.37,2013-01-08 07:44:00,
2013-01-08 02:49:00,73.4,70.9,30.08,SSE,158,5.8,5.8,92,0.00,CLR,,0.00,WeatherDisplay:10.37,2013-01-08 07:49:00,
2013-01-08 02:54:00,73.8,71.3,30.08,SSE,158,6.3,6.3,92,0.00,CLR,,0.00,WeatherDisplay:10.37,2013-01-08 07:54:00,
2013-01-08 02:59:00,74.1,71.3,30.08,SE,135,7.3,7.3,91,0.00,CLR,,0.00,WeatherDisplay:10.37,2013-01-08 07:59:00,
2013-01-08 03:04:00,73.9,71.1,30.08,SE,135,5.8,5.8,91,0.00,CLR,,0.00,WeatherDisplay:10.37,2013-01-08 08:04:00,
2013-01-08 03:09:00,73.9,71.1,30.08,SE,135,6.3,6.3,91,0.00,CLR,,0.00,WeatherDisplay:10.37,2013-01-08 08:09:00,
2013-01-08 03:14:00,74.1,71.3,30.08,SSE,158,4.7,4.7,91,0.00,CLR,,0.00,WeatherDisplay:10.37,2013-01-08 08:14:00,
2013-01-08 03:19:00,74.3,71.5,30.08,ESE,112,5.8,5.8,91,0.00,CLR,,0.00,WeatherDisplay:10.37,2013-01-08 08:19:00,
2013-01-08 03:24:00,74.3,71.5,30.08,SSE,158,9.4,9.4,91,0.00,CLR,,0.00,WeatherDisplay:10.37,2013-01-08 08:24:00,
2013-01-08 03:29:00,74.5,71.4,30.08,ESE,112,5.8,5.8,90,0.00,CLR,,0.00,WeatherDisplay:10.37,2013-01-08 08:29:00,
2013-01-08 03:34:00,74.5,71.4,30.08,SSE,158,4.6,4.6,90,0.00,CLR,,0.00,WeatherDisplay:10.37,2013-01-08 08:34:00,
2013-01-08 03:39:00,74.5,71.4,30.08,ESE,112,8.3,8.3,90,0.00,CLR,,0.00,WeatherDisplay:10.37,2013-01-08 08:39:00,
2013-01-08 03:44:00,74.5,71.4,30.08,SE,135,4.6,4.6,90,0.00,CLR,,0.00,WeatherDisplay:10.37,2013-01-08 08:44:00,
2013-01-08 03:49:00,74.3,71.2,30.08,ESE,112,5.3,5.3,90,0.00,CLR,,0.00,WeatherDisplay:10.37,2013-01-08 08:49:00,
2013-01-08 03:54:00,74.1,71.3,30.08,ESE,112,3.5,3.5,91,0.00,CLR,,0.00,WeatherDisplay:10.37,2013-01-08 08:54:00,
2013-01-08 03:59:00,74.1,71.3,30.08,SSE,158,4.6,4.6,91,0.00,CLR,,0.00,WeatherDisplay:10.37,2013-01-08 08:59:00,
2013-01-08 04:04:00,74.1,71.3,30.07,ESE,112,5.8,5.8,91,0.00,CLR,,0.00,WeatherDisplay:10.37,2013-01-08 09:04:00,
2013-01-08 04:10:00,73.9,70.5,30.07,SE,135,11.4,11.4,89,0.00,CLR,,0.00,WeatherDisplay:10.37,2013-01-08 09:10:00,
2013-01-08 04:15:00,70.9,70.0,30.08,ESE,112,15.0,15.0,97,0.04,RA,,0.04,WeatherDisplay:10.37,2013-01-08 09:15:00,
2013-01-08 04:20:00,70.9,70.6,30.08,ESE,112,10.4,10.4,99,0.16,RA,,0.16,WeatherDisplay:10.37,2013-01-08 09:20:00,
2013-01-08 04:25:00,71.2,70.9,30.08,SSE,158,7.3,7.3,99,0.17,RA,,0.17,WeatherDisplay:10.37,2013-01-08 09:25:00,
2013-01-08 04:30:00,71.6,70.7,30.08,SSE,158,8.3,8.3,97,0.17,RA,,0.17,WeatherDisplay:10.37,2013-01-08 09:30:00,
2013-01-08 04:35:00,71.6,71.0,30.08,SE,135,5.8,5.8,98,0.17,CLR,,0.17,WeatherDisplay:10.37,2013-01-08 09:35:00,
2013-01-08 04:40:00,71.8,71.2,30.08,SSE,158,8.3,8.3,98,0.17,CLR,,0.17,WeatherDisplay:10.37,2013-01-08 09:40:00,
2013-01-08 04:45:00,72.1,71.2,30.08,East,90,5.8,5.8,97,0.17,CLR,,0.17,WeatherDisplay:10.37,2013-01-08 09:45:00,
2013-01-08 04:50:00,72.1,71.2,30.08,ESE,112,5.8,5.8,97,0.17,CLR,,0.17,WeatherDisplay:10.37,2013-01-08 09:50:00,
2013-01-08 04:55:00,72.0,71.1,30.08,SE,135,5.8,5.8,97,0.17,CLR,,0.17,WeatherDisplay:10.37,2013-01-08 09:55:00,
2013-01-08 05:00:00,72.3,71.4,30.08,ESE,112,5.8,5.8,97,0.17,CLR,,0.17,WeatherDisplay:10.37,2013-01-08 10:00:00,
2013-01-08 05:05:00,72.3,71.4,30.08,SSE,158,4.7,4.7,97,0.17,CLR,,0.17,WeatherDisplay:10.37,2013-01-08 10:05:00,
2013-01-08 05:10:00,72.3,71.7,30.08,SSE,158,3.7,3.7,98,0.17,CLR,,0.17,WeatherDisplay:10.37,2013-01-08 10:10:00,
2013-01-08 05:15:00,72.7,71.8,30.09,SSE,158,5.8,5.8,97,0.13,CLR,,0.17,WeatherDisplay:10.37,2013-01-08 10:15:00,
2013-01-08 05:20:00,73.2,71.7,30.09,ESE,112,10.4,10.4,95,0.01,CLR,,0.17,WeatherDisplay:10.37,2013-01-08 10:20:00,
2013-01-08 05:25:00,73.2,71.7,30.09,SE,135,6.8,6.8,95,0.00,CLR,,0.17,WeatherDisplay:10.37,2013-01-08 10:25:00,
2013-01-08 05:30:00,73.2,71.4,30.09,SE,135,6.9,6.9,94,0.00,CLR,,0.17,WeatherDisplay:10.37,2013-01-08 10:30:00,
2013-01-08 05:35:00,73.2,71.4,30.09,SSE,158,5.8,5.8,94,0.00,CLR,,0.17,WeatherDisplay:10.37,2013-01-08 10:35:00,
2013-01-08 05:40:00,73.4,71.6,30.09,SE,135,5.8,5.8,94,0.00,CLR,,0.17,WeatherDisplay:10.37,2013-01-08 10:40:00,
2013-01-08 05:45:00,73.4,71.6,30.09,SSE,158,4.7,4.7,94,0.00,CLR,,0.17,WeatherDisplay:10.37,2013-01-08 10:45:00,
2013-01-08 05:50:00,73.4,71.6,30.09,SE,135,7.8,7.8,94,0.00,CLR,,0.17,WeatherDisplay:10.37,2013-01-08 10:50:00,
2013-01-08 05:55:00,73.6,71.4,30.10,SE,140,6.0,0.0,93,0.00,CLR,,0.17,WeatherDisplay:10.37,2013-01-08 10:55:00,
2013-01-08 06:00:00,73.7,71.6,30.10,SSE,148,5.0,0.0,93,0.00,CLR,,0.17,WeatherDisplay:10.37,2013-01-08 11:00:00,
2013-01-08 06:05:00,73.8,71.6,30.11,SE,146,3.0,0.0,93,0.00,CLR,,0.17,WeatherDisplay:10.37,2013-01-08 11:05:00,
2013-01-08 06:10:00,73.8,71.6,30.11,SE,139,5.0,0.0,93,0.00,CLR,,0.17,WeatherDisplay:10.37,2013-01-08 11:10:00,
2013-01-08 06:15:00,73.9,71.4,30.11,SE,138,6.0,0.0,92,0.00,CLR,,0.17,WeatherDisplay:10.37,2013-01-08 11:15:00,
2013-01-08 06:20:00,73.8,71.6,30.11,SE,144,5.0,0.0,93,0.00,CLR,,0.17,WeatherDisplay:10.37,2013-01-08 11:20:00,
2013-01-08 06:25:00,73.8,71.6,30.11,SSE,149,5.0,0.0,93,0.00,CLR,,0.17,WeatherDisplay:10.37,2013-01-08 11:25:00,
2013-01-08 06:30:00,73.8,71.6,30.11,SE,145,5.0,0.0,93,0.00,CLR,,0.17,WeatherDisplay:10.37,2013-01-08 11:30:00,
2013-01-08 06:35:00,73.9,71.4,30.11,SE,141,7.0,0.0,92,0.00,CLR,,0.17,WeatherDisplay:10.37,2013-01-08 11:35:00,
2013-01-08 06:40:00,73.9,71.1,30.12,SE,129,5.0,0.0,91,0.00,CLR,,0.17,WeatherDisplay:10.37,2013-01-08 11:40:00,
2013-01-08 06:45:00,73.9,71.1,30.12,SE,139,3.0,0.0,91,0.00,CLR,,0.17,WeatherDisplay:10.37,2013-01-08 11:45:00,
2013-01-08 06:50:00,73.9,71.4,30.12,SE,146,5.0,0.0,92,0.00,CLR,,0.17,WeatherDisplay:10.37,2013-01-08 11:50:00,
2013-01-08 06:55:00,73.8,71.3,30.12,SSE,147,5.0,0.0,92,0.00,CLR,,0.17,WeatherDisplay:10.37,2013-01-08 11:55:00,
2013-01-08 07:00:00,73.6,71.4,30.12,SE,143,3.0,0.0,93,0.00,CLR,,0.17,WeatherDisplay:10.37,2013-01-08 12:00:00,
2013-01-08 07:05:00,73.6,71.4,30.13,SE,130,2.0,0.0,93,0.00,CLR,,0.17,WeatherDisplay:10.37,2013-01-08 12:05:00,
2013-01-08 07:10:00,73.4,71.3,30.13,SE,134,3.0,0.0,93,0.00,CLR,,0.17,WeatherDisplay:10.37,2013-01-08 12:10:00,
2013-01-08 07:15:00,73.2,71.1,30.13,SE,136,3.0,0.0,93,0.00,CLR,,0.17,WeatherDisplay:10.37,2013-01-08 12:15:00,
2013-01-08 07:20:00,73.2,71.1,30.13,SE,135,3.0,0.0,93,0.00,CLR,,0.17,WeatherDisplay:10.37,2013-01-08 12:20:00,
2013-01-08 07:25:00,73.2,71.1,30.13,SE,140,2.0,0.0,93,0.00,CLR,,0.17,WeatherDisplay:10.37,2013-01-08 12:25:00,
2013-01-08 07:30:00,73.5,71.4,30.13,SE,139,5.0,0.0,93,0.00,CLR,,0.17,WeatherDisplay:10.37,2013-01-08 12:30:00,
2013-01-08 07:35:00,73.8,71.3,30.13,SE,138,5.0,0.0,92,0.00,CLR,,0.17,WeatherDisplay:10.37,2013-01-08 12:35:00,
2013-01-08 07:40:00,73.9,71.4,30.13,SE,132,3.0,0.0,92,0.00,CLR,,0.17,WeatherDisplay:10.37,2013-01-08 12:40:00,
2013-01-08 07:45:00,74.3,71.8,30.13,SE,129,5.0,0.0,92,0.00,CLR,,0.17,WeatherDisplay:10.37,2013-01-08 12:45:00,
2013-01-08 07:50:00,74.7,71.9,30.13,SE,125,5.0,0.0,91,0.00,CLR,,0.17,WeatherDisplay:10.37,2013-01-08 12:50:00,
2013-01-08 07:55:00,75.2,72.1,30.15,SE,145,5.0,0.0,90,0.00,CLR,,0.17,WeatherDisplay:10.37,2013-01-08 12:55:00,
2013-01-08 08:00:00,75.7,72.6,30.15,SE,142,3.0,0.0,90,0.00,CLR,,0.17,WeatherDisplay:10.37,2013-01-08 13:00:00,
2013-01-08 08:05:00,75.7,72.5,30.15,SE,133,3.0,0.0,90,0.00,CLR,,0.17,WeatherDisplay:10.37,2013-01-08 13:05:00,
2013-01-08 08:10:00,75.7,72.6,30.15,SE,133,5.0,0.0,90,0.00,CLR,,0.17,WeatherDisplay:10.37,2013-01-08 13:10:00,
2013-01-08 08:15:00,76.1,72.6,30.15,SE,133,6.0,0.0,89,0.00,CLR,,0.17,WeatherDisplay:10.37,2013-01-08 13:15:00,
2013-01-08 08:20:00,76.1,72.6,30.15,SE,138,5.0,0.0,89,0.00,CLR,,0.17,WeatherDisplay:10.37,2013-01-08 13:20:00,
2013-01-08 08:25:00,76.5,73.1,30.15,SSE,148,6.0,0.0,89,0.00,CLR,,0.17,WeatherDisplay:10.37,2013-01-08 13:25:00,
2013-01-08 08:30:00,76.8,73.0,30.16,SSE,147,6.0,0.0,88,0.00,CLR,,0.17,WeatherDisplay:10.37,2013-01-08 13:30:00,
2013-01-08 08:35:00,77.4,73.2,30.16,ESE,112,7.8,7.8,87,0.00,CLR,,0.17,WeatherDisplay:10.37,2013-01-08 13:35:00,
2013-01-08 08:40:00,77.2,73.4,30.16,ESE,112,8.1,8.1,88,0.00,CLR,,0.17,WeatherDisplay:10.37,2013-01-08 13:40:00,
2013-01-08 08:45:00,77.4,73.2,30.16,SSE,158,10.4,10.4,87,0.00,CLR,,0.17,WeatherDisplay:10.37,2013-01-08 13:45:00,
2013-01-08 08:50:00,78.3,73.4,30.17,SE,135,6.9,7.6,85,0.00,CLR,,0.17,WeatherDisplay:10.37,2013-01-08 13:50:00,
2013-01-08 08:55:00,78.1,73.2,30.17,SE,135,10.4,10.4,85,0.00,CLR,,0.17,WeatherDisplay:10.37,2013-01-08 13:55:00,
2013-01-08 09:00:00,77.9,72.7,30.17,SE,135,10.9,10.9,84,0.00,CLR,,0.17,WeatherDisplay:10.37,2013-01-08 14:00:00,
2013-01-08 09:05:00,78.4,73.2,30.18,SE,134,6.0,0.0,84,0.00,CLR,,0.17,WeatherDisplay:10.37,2013-01-08 14:05:00,
2013-01-08 09:10:00,79.1,73.5,30.18,SE,128,5.0,0.0,83,0.00,CLR,,0.17,WeatherDisplay:10.37,2013-01-08 14:10:00,
2013-01-08 09:15:00,78.9,72.9,30.18,SE,124,8.0,0.0,82,0.00,CLR,,0.17,WeatherDisplay:10.37,2013-01-08 14:15:00,
2013-01-08 09:16:00,76.6,72.4,30.15,ESE,112,6.0,13.0,87,0.00,CLR,,0.17,WeatherDisplay:10.37,2013-01-08 14:16:00,
2013-01-08 09:17:00,76.6,72.4,30.15,ESE,112,6.0,0.0,87,0.00,CLR,,0.17,WeatherDisplay:10.37,2013-01-08 14:17:00,
2013-01-08 09:18:00,76.6,72.4,30.15,ESE,112,6.0,0.0,87,0.00,CLR,,0.17,WeatherDisplay:10.37,2013-01-08 14:18:00,
2013-01-08 09:19:00,76.6,72.4,30.15,ESE,112,6.0,0.0,87,0.00,CLR,,0.17,WeatherDisplay:10.37,2013-01-08 14:19:00,
2013-01-08 09:20:00,78.9,72.9,30.18,SE,134,6.0,0.0,82,0.00,CLR,,0.17,WeatherDisplay:10.37,2013-01-08 14:20:00,
2013-01-08 09:25:00,78.8,72.8,30.18,SE,139,7.0,0.0,82,0.00,CLR,,0.17,WeatherDisplay:10.37,2013-01-08 14:25:00,
2013-01-08 09:30:00,78.9,72.9,30.19,SE,139,9.0,0.0,82,0.00,CLR,,0.17,WeatherDisplay:10.37,2013-01-08 14:30:00,
2013-01-08 09:35:00,78.4,72.8,30.19,SE,143,9.0,0.0,83,0.00,CLR,,0.17,WeatherDisplay:10.37,2013-01-08 14:35:00,
2013-01-08 09:40:00,78.9,72.9,30.19,SE,142,8.0,0.0,82,0.00,CLR,,0.17,WeatherDisplay:10.37,2013-01-08 14:40:00,
2013-01-08 09:45:00,79.5,72.8,30.19,SE,141,6.0,0.0,80,0.00,CLR,,0.17,WeatherDisplay:10.37,2013-01-08 14:45:00,
2013-01-08 09:50:00,79.8,73.1,30.19,SE,141,6.0,0.0,80,0.00,CLR,,0.17,WeatherDisplay:10.37,2013-01-08 14:50:00,
2013-01-08 09:55:00,79.2,72.9,30.20,SSE,148,12.0,0.0,81,0.00,CLR,,0.17,WeatherDisplay:10.37,2013-01-08 14:55:00,
2013-01-08 10:00:00,79.6,72.9,30.20,SSE,157,10.0,0.0,80,0.00,CLR,,0.17,WeatherDisplay:10.37,2013-01-08 15:00:00,
2013-01-08 10:05:00,79.1,72.7,30.19,SE,146,9.0,0.0,81,0.00,CLR,,0.17,WeatherDisplay:10.37,2013-01-08 15:05:00,
2013-01-08 10:10:00,81.0,73.9,30.19,SE,139,6.0,0.0,79,0.00,CLR,,0.17,WeatherDisplay:10.37,2013-01-08 15:10:00,
2013-01-08 10:15:00,79.9,73.2,30.20,SSE,147,9.0,0.0,80,0.00,CLR,,0.17,WeatherDisplay:10.37,2013-01-08 15:15:00,
2013-01-08 10:20:00,80.2,73.1,30.20,SSE,147,7.0,0.0,79,0.00,CLR,,0.17,WeatherDisplay:10.37,2013-01-08 15:20:00,
2013-01-08 10:25:00,80.2,73.5,30.20,SE,141,7.0,0.0,80,0.00,CLR,,0.17,WeatherDisplay:10.37,2013-01-08 15:25:00,
2013-01-08 10:30:00,80.1,73.0,30.19,SE,136,8.0,0.0,79,0.00,CLR,,0.17,WeatherDisplay:10.37,2013-01-08 15:30:00,
2013-01-08 10:35:00,79.2,72.5,30.19,SE,129,10.0,0.0,80,0.00,CLR,,0.17,WeatherDisplay:10.37,2013-01-08 15:35:00,
2013-01-08 10:40:00,79.3,72.6,30.19,SE,135,8.0,0.0,80,0.00,CLR,,0.17,WeatherDisplay:10.37,2013-01-08 15:40:00,
2013-01-08 10:45:00,81.2,73.3,30.19,SE,141,5.0,0.0,77,0.00,CLR,,0.17,WeatherDisplay:10.37,2013-01-08 15:45:00,
2013-01-08 10:50:00,80.4,72.9,30.19,SSE,149,8.0,0.0,78,0.00,CLR,,0.17,WeatherDisplay:10.37,2013-01-08 15:50:00,
2013-01-08 10:55:00,81.4,73.1,30.19,SSE,148,6.0,0.0,76,0.00,CLR,,0.17,WeatherDisplay:10.37,2013-01-08 15:55:00,
2013-01-08 11:00:00,80.9,73.0,30.19,SSE,157,7.0,0.0,77,0.00,CLR,,0.17,WeatherDisplay:10.37,2013-01-08 16:00:00,
2013-01-08 11:05:00,82.2,73.5,30.18,SSE,155,6.0,0.0,75,0.00,CLR,,0.17,WeatherDisplay:10.37,2013-01-08 16:05:00,
2013-01-08 11:10:00,81.1,73.6,30.18,SSE,154,7.0,0.0,78,0.00,CLR,,0.17,WeatherDisplay:10.37,2013-01-08 16:10:00,
2013-01-08 11:15:00,81.4,73.5,30.18,SE,139,8.0,0.0,77,0.00,CLR,,0.17,WeatherDisplay:10.37,2013-01-08 16:15:00,
2013-01-08 11:20:00,80.3,73.2,30.18,SE,144,9.0,0.0,79,0.00,CLR,,0.17,WeatherDisplay:10.37,2013-01-08 16:20:00,
2013-01-08 11:25:00,80.5,73.4,30.18,SE,143,9.0,0.0,79,0.00,CLR,,0.17,WeatherDisplay:10.37,2013-01-08 16:25:00,
2013-01-08 11:30:00,80.0,73.3,30.17,SE,143,8.0,0.0,80,0.00,CLR,,0.17,WeatherDisplay:10.37,2013-01-08 16:30:00,
2013-01-08 11:35:00,81.3,73.4,30.17,SE,144,8.0,0.0,77,0.00,CLR,,0.17,WeatherDisplay:10.37,2013-01-08 16:35:00,
2013-01-08 11:40:00,81.0,73.5,30.17,SSE,149,8.0,0.0,78,0.00,CLR,,0.17,WeatherDisplay:10.37,2013-01-08 16:40:00,
2013-01-08 11:45:00,79.8,73.1,30.17,SE,140,10.0,0.0,80,0.00,CLR,,0.17,WeatherDisplay:10.37,2013-01-08 16:45:00,
2013-01-08 11:50:00,82.1,74.2,30.17,SE,129,6.0,0.0,77,0.00,CLR,,0.17,WeatherDisplay:10.37,2013-01-08 16:50:00,
2013-01-08 11:55:00,81.0,73.5,30.17,SE,137,6.0,0.0,78,0.00,CLR,,0.17,WeatherDisplay:10.37,2013-01-08 16:55:00,
2013-01-08 12:00:00,80.8,72.9,30.17,SE,142,8.0,0.0,77,0.00,CLR,,0.17,WeatherDisplay:10.37,2013-01-08 17:00:00,
2013-01-08 12:05:00,80.6,73.1,30.16,SE,135,8.0,0.0,78,0.00,CLR,,0.17,WeatherDisplay:10.37,2013-01-08 17:05:00,
2013-01-08 12:10:00,80.1,73.3,30.16,SE,146,9.0,0.0,80,0.00,CLR,,0.17,WeatherDisplay:10.37,2013-01-08 17:10:00,
2013-01-08 12:15:00,80.5,73.4,30.16,SE,144,7.0,0.0,79,0.00,CLR,,0.17,WeatherDisplay:10.37,2013-01-08 17:15:00,
2013-01-08 12:20:00,80.8,73.3,30.16,SE,132,9.0,0.0,78,0.00,CLR,,0.17,WeatherDisplay:10.37,2013-01-08 17:20:00,
2013-01-08 12:25:00,80.7,73.5,30.16,SE,136,9.0,0.0,79,0.00,CLR,,0.17,WeatherDisplay:10.37,2013-01-08 17:25:00,
2013-01-08 12:30:00,81.8,73.9,30.16,SE,144,6.0,0.0,77,0.00,CLR,,0.17,WeatherDisplay:10.37,2013-01-08 17:30:00,
2013-01-08 12:35:00,82.8,73.7,30.16,SSE,153,6.0,0.0,74,0.00,CLR,,0.17,WeatherDisplay:10.37,2013-01-08 17:35:00,
2013-01-08 12:40:00,80.4,73.7,30.15,SSE,154,8.0,0.0,80,0.00,CLR,,0.17,WeatherDisplay:10.37,2013-01-08 17:40:00,
2013-01-08 12:45:00,80.5,73.8,30.15,SE,140,12.0,0.0,80,0.00,CLR,,0.17,WeatherDisplay:10.37,2013-01-08 17:45:00,
2013-01-08 12:50:00,80.5,73.8,30.15,SE,145,8.0,0.0,80,0.00,CLR,,0.17,WeatherDisplay:10.37,2013-01-08 17:50:00,
2013-01-08 12:55:00,81.3,73.8,30.15,SSE,156,8.0,0.0,78,0.00,CLR,,0.17,WeatherDisplay:10.37,2013-01-08 17:55:00,
2013-01-08 13:00:00,80.6,73.5,30.15,SE,138,9.0,0.0,79,0.00,CLR,,0.17,WeatherDisplay:10.37,2013-01-08 18:00:00,
2013-01-08 13:05:00,80.2,73.5,30.15,SE,132,13.0,0.0,80,0.00,CLR,,0.17,WeatherDisplay:10.37,2013-01-08 18:05:00,
2013-01-08 13:10:00,80.8,73.7,30.15,SE,134,9.0,0.0,79,0.00,CLR,,0.17,WeatherDisplay:10.37,2013-01-08 18:10:00,
2013-01-08 13:15:00,80.9,73.4,30.14,SE,132,12.0,0.0,78,0.00,CLR,,0.17,WeatherDisplay:10.37,2013-01-08 18:15:00,
2013-01-08 13:20:00,81.1,74.0,30.14,SE,131,8.0,0.0,79,0.00,CLR,,0.17,WeatherDisplay:10.37,2013-01-08 18:20:00,
2013-01-08 13:25:00,80.4,73.3,30.14,SE,136,9.0,0.0,79,0.00,CLR,,0.17,WeatherDisplay:10.37,2013-01-08 18:25:00,
2013-01-08 13:30:00,80.1,73.3,30.14,SE,139,10.0,0.0,80,0.00,CLR,,0.17,WeatherDisplay:10.37,2013-01-08 18:30:00,
2013-01-08 13:35:00,79.6,73.3,30.14,SE,146,12.0,0.0,81,0.00,CLR,,0.17,WeatherDisplay:10.37,2013-01-08 18:35:00,
2013-01-08 13:40:00,80.2,73.8,30.13,SE,135,8.0,0.0,81,0.00,CLR,,0.17,WeatherDisplay:10.37,2013-01-08 18:40:00,
2013-01-08 13:45:00,80.4,73.7,30.13,SE,131,7.0,0.0,80,0.00,CLR,,0.17,WeatherDisplay:10.37,2013-01-08 18:45:00,
2013-01-08 13:50:00,80.1,73.7,30.13,SE,143,10.0,0.0,81,0.00,CLR,,0.17,WeatherDisplay:10.37,2013-01-08 18:50:00,
2013-01-08 13:55:00,80.8,73.7,30.13,SE,142,8.0,0.0,79,0.00,CLR,,0.17,WeatherDisplay:10.37,2013-01-08 18:55:00,
2013-01-08 14:00:00,80.2,73.1,30.13,SE,142,9.0,0.0,79,0.00,CLR,,0.17,WeatherDisplay:10.37,2013-01-08 19:00:00,
2013-01-08 14:05:00,80.3,73.2,30.12,SE,138,9.0,0.0,79,0.00,CLR,,0.17,WeatherDisplay:10.37,2013-01-08 19:05:00,
2013-01-08 14:10:00,80.3,72.8,30.12,SE,127,12.0,0.0,78,0.00,CLR,,0.17,WeatherDisplay:10.37,2013-01-08 19:10:00,
2013-01-08 14:15:00,80.4,72.9,30.12,SE,139,13.0,0.0,78,0.00,CLR,,0.17,WeatherDisplay:10.37,2013-01-08 19:15:00,
2013-01-08 14:20:00,80.5,73.0,30.12,SE,135,8.0,0.0,78,0.00,CLR,,0.17,WeatherDisplay:10.37,2013-01-08 19:20:00,
2013-01-08 14:25:00,80.3,72.8,30.12,SE,139,7.0,0.0,78,0.00,CLR,,0.17,WeatherDisplay:10.37,2013-01-08 19:25:00,
2013-01-08 14:30:00,79.9,72.8,30.12,SE,134,10.0,0.0,79,0.00,CLR,,0.17,WeatherDisplay:10.37,2013-01-08 19:30:00,
2013-01-08 14:35:00,81.0,73.5,30.12,SE,130,6.0,0.0,78,0.00,CLR,,0.17,WeatherDisplay:10.37,2013-01-08 19:35:00,
2013-01-08 14:40:00,80.2,73.1,30.12,SE,139,8.0,0.0,79,0.00,CLR,,0.17,WeatherDisplay:10.37,2013-01-08 19:40:00,
2013-01-08 14:45:00,79.8,73.0,30.12,SE,138,13.0,0.0,80,0.00,CLR,,0.17,WeatherDisplay:10.37,2013-01-08 19:45:00,
2013-01-08 14:50:00,79.9,73.2,30.12,SE,138,8.0,0.0,80,0.00,CLR,,0.17,WeatherDisplay:10.37,2013-01-08 19:50:00,
2013-01-08 14:55:00,79.7,73.0,30.12,SE,136,10.0,0.0,80,0.00,CLR,,0.17,WeatherDisplay:10.37,2013-01-08 19:55:00,
2013-01-08 15:00:00,79.6,72.9,30.12,SE,138,9.0,0.0,80,0.00,CLR,,0.17,WeatherDisplay:10.37,2013-01-08 20:00:00,
2013-01-08 15:05:00,79.3,72.6,30.12,SSE,153,9.0,0.0,80,0.00,CLR,,0.17,WeatherDisplay:10.37,2013-01-08 20:05:00,
2013-01-08 15:10:00,79.3,72.6,30.12,South,174,9.0,0.0,80,0.00,CLR,,0.17,WeatherDisplay:10.37,2013-01-08 20:10:00,
2013-01-08 15:15:00,79.3,72.6,30.12,South,180,9.0,0.0,80,0.00,CLR,,0.17,WeatherDisplay:10.37,2013-01-08 20:15:00,
2013-01-08 15:20:00,79.3,72.6,30.12,South,180,9.0,0.0,80,0.00,CLR,,0.17,WeatherDisplay:10.37,2013-01-08 20:20:00,
2013-01-08 15:25:00,79.3,72.6,30.12,South,180,9.0,0.0,80,0.00,CLR,,0.17,WeatherDisplay:10.37,2013-01-08 20:25:00,
2013-01-08 15:30:00,79.6,73.3,30.12,SSE,161,9.0,0.0,81,0.00,CLR,,0.17,WeatherDisplay:10.37,2013-01-08 20:30:00,
2013-01-08 15:35:00,79.3,73.0,30.12,SE,130,8.0,0.0,81,0.00,CLR,,0.17,WeatherDisplay:10.37,2013-01-08 20:35:00,
2013-01-08 15:40:00,78.8,72.8,30.12,SE,130,9.0,0.0,82,0.00,CLR,,0.17,WeatherDisplay:10.37,2013-01-08 20:40:00,
2013-01-08 15:45:00,78.8,72.8,30.12,SE,137,10.0,0.0,82,0.00,CLR,,0.17,WeatherDisplay:10.37,2013-01-08 20:45:00,
2013-01-08 15:50:00,79.2,73.2,30.12,SE,134,8.0,0.0,82,0.00,CLR,,0.17,WeatherDisplay:10.37,2013-01-08 20:50:00,
2013-01-08 15:55:00,79.3,73.0,30.12,SE,127,7.0,0.0,81,0.00,CLR,,0.17,WeatherDisplay:10.37,2013-01-08 20:55:00,
2013-01-08 16:00:00,79.1,72.8,30.12,SE,130,8.0,0.0,81,0.00,CLR,,0.17,WeatherDisplay:10.37,2013-01-08 21:00:00,
2013-01-08 16:05:00,79.2,73.2,30.13,SE,141,6.0,0.0,82,0.00,CLR,,0.17,WeatherDisplay:10.37,2013-01-08 21:05:00,
2013-01-08 16:10:00,78.5,72.5,30.13,SSE,147,8.0,0.0,82,0.00,CLR,,0.17,WeatherDisplay:10.37,2013-01-08 21:10:00,
2013-01-08 16:15:00,78.3,72.7,30.13,SE,143,7.0,0.0,83,0.00,CLR,,0.17,WeatherDisplay:10.37,2013-01-08 21:15:00,
2013-01-08 16:20:00,78.1,72.8,30.13,SE,136,8.0,0.0,84,0.00,CLR,,0.17,WeatherDisplay:10.37,2013-01-08 21:20:00,
2013-01-08 16:25:00,78.0,72.8,30.13,SE,139,7.0,0.0,84,0.00,CLR,,0.17,WeatherDisplay:10.37,2013-01-08 21:25:00,
2013-01-08 16:30:00,77.7,72.5,30.13,SE,135,8.0,0.0,84,0.00,CLR,,0.17,WeatherDisplay:10.37,2013-01-08 21:30:00,
2013-01-08 16:35:00,77.8,72.6,30.13,SE,138,10.0,0.0,84,0.00,CLR,,0.17,WeatherDisplay:10.37,2013-01-08 21:35:00,
2013-01-08 16:40:00,77.7,72.5,30.13,SE,130,7.0,0.0,84,0.00,CLR,,0.17,WeatherDisplay:10.37,2013-01-08 21:40:00,
2013-01-08 16:45:00,77.9,72.7,30.13,ESE,117,5.0,0.0,84,0.00,CLR,,0.17,WeatherDisplay:10.37,2013-01-08 21:45:00,
2013-01-08 16:50:00,77.9,72.7,30.13,ESE,112,5.0,0.0,84,0.00,CLR,,0.17,WeatherDisplay:10.37,2013-01-08 21:50:00,
2013-01-08 16:55:00,77.9,72.7,30.13,SE,128,7.0,0.0,84,0.00,CLR,,0.17,WeatherDisplay:10.37,2013-01-08 21:55:00,
2013-01-08 17:00:00,77.5,72.3,30.13,SE,138,6.0,0.0,84,0.00,CLR,,0.17,WeatherDisplay:10.37,2013-01-08 22:00:00,
2013-01-08 17:05:00,77.5,72.6,30.14,SE,127,7.0,0.0,85,0.00,CLR,,0.17,WeatherDisplay:10.37,2013-01-08 22:05:00,
2013-01-08 17:10:00,77.4,72.5,30.14,ESE,117,7.0,0.0,85,0.00,CLR,,0.17,WeatherDisplay:10.37,2013-01-08 22:10:00,
2013-01-08 17:15:00,77.4,72.9,30.14,ESE,116,5.0,0.0,86,0.00,CLR,,0.17,WeatherDisplay:10.37,2013-01-08 22:15:00,
2013-01-08 17:20:00,77.2,72.7,30.14,ESE,112,6.0,0.0,86,0.00,CLR,,0.17,WeatherDisplay:10.37,2013-01-08 22:20:00,
2013-01-08 17:25:00,77.0,72.8,30.14,SE,128,7.0,0.0,87,0.00,CLR,,0.17,WeatherDisplay:10.37,2013-01-08 22:25:00,
2013-01-08 17:30:00,77.0,72.8,30.15,SE,138,6.0,0.0,87,0.00,CLR,,0.17,WeatherDisplay:10.37,2013-01-08 22:30:00,
2013-01-08 17:35:00,77.0,72.8,30.15,SSE,149,6.0,0.0,87,0.00,CLR,,0.17,WeatherDisplay:10.37,2013-01-08 22:35:00,
2013-01-08 17:40:00,76.8,72.6,30.15,SE,141,6.0,0.0,87,0.00,CLR,,0.17,WeatherDisplay:10.37,2013-01-08 22:40:00,
2013-01-08 17:45:00,76.8,72.6,30.15,SE,126,8.0,0.0,87,0.00,CLR,,0.17,WeatherDisplay:10.37,2013-01-08 22:45:00,
2013-01-08 17:50:00,76.6,72.4,30.15,ESE,112,9.2,9.2,87,0.00,CLR,,0.17,WeatherDisplay:10.37,2013-01-08 22:50:00,
2013-01-08 17:55:00,76.6,72.4,30.15,ESE,112,6.3,6.3,87,0.00,CLR,,0.17,WeatherDisplay:10.37,2013-01-08 22:55:00,
2013-01-08 18:00:00,76.6,72.4,30.15,ESE,112,6.3,6.3,87,0.00,CLR,,0.17,WeatherDisplay:10.37,2013-01-08 23:00:00,
2013-01-08 18:05:00,76.6,72.4,30.15,ESE,112,6.3,6.3,87,0.00,CLR,,0.17,WeatherDisplay:10.37,2013-01-08 23:05:00,
2013-01-08 18:10:00,76.6,72.4,30.15,ESE,112,6.3,6.3,87,0.00,CLR,,0.17,WeatherDisplay:10.37,2013-01-08 23:10:00,
2013-01-08 18:15:00,76.6,72.4,30.15,ESE,112,6.3,6.3,87,0.00,CLR,,0.17,WeatherDisplay:10.37,2013-01-08 23:15:00,
2013-01-08 18:20:00,76.6,72.4,30.15,ESE,112,6.3,6.3,87,0.00,CLR,,0.17,WeatherDisplay:10.37,2013-01-08 23:20:00,
2013-01-08 18:25:00,76.6,72.4,30.15,ESE,112,6.0,0.0,87,0.00,CLR,,0.17,WeatherDisplay:10.37,2013-01-08 23:25:00,
2013-01-08 18:30:00,76.6,72.4,30.15,ESE,112,6.0,0.0,87,0.00,CLR,,0.17,WeatherDisplay:10.37,2013-01-08 23:30:00,
2013-01-08 18:35:00,76.6,72.4,30.15,ESE,112,6.0,0.0,87,0.00,CLR,,0.17,WeatherDisplay:10.37,2013-01-08 23:35:00,
2013-01-08 18:40:00,76.6,72.4,30.15,ESE,112,6.0,0.0,87,0.00,CLR,,0.17,WeatherDisplay:10.37,2013-01-08 23:40:00,
2013-01-08 18:45:00,76.6,72.4,30.15,ESE,112,6.0,0.0,87,0.00,CLR,,0.17,WeatherDisplay:10.37,2013-01-08 23:45:00,
2013-01-08 18:50:00,76.6,72.4,30.15,ESE,112,6.0,0.0,87,0.00,CLR,,0.17,WeatherDisplay:10.37,2013-01-08 23:50:00,
2013-01-08 18:55:00,76.6,72.4,30.15,ESE,112,6.0,0.0,87,0.00,CLR,,0.17,WeatherDisplay:10.37,2013-01-08 23:55:00,
2013-01-08 19:00:00,76.6,72.4,30.15,ESE,112,6.0,0.0,87,0.00,CLR,,0.17,WeatherDisplay:10.37,2013-01-09 00:00:00,
2013-01-08 19:05:00,76.6,72.4,30.15,ESE,112,6.0,0.0,87,0.00,CLR,,0.17,WeatherDisplay:10.37,2013-01-09 00:05:00,
2013-01-08 19:10:00,76.6,72.4,30.15,ESE,112,6.0,0.0,87,0.00,CLR,,0.17,WeatherDisplay:10.37,2013-01-09 00:10:00,
2013-01-08 19:15:00,76.6,72.4,30.15,ESE,112,6.0,0.0,87,0.00,CLR,,0.17,WeatherDisplay:10.37,2013-01-09 00:15:00,
2013-01-08 19:20:00,76.6,72.4,30.15,ESE,112,6.0,0.0,87,0.00,CLR,,0.17,WeatherDisplay:10.37,2013-01-09 00:20:00,
2013-01-08 19:25:00,76.6,72.4,30.15,ESE,112,6.0,0.0,87,0.00,CLR,,0.17,WeatherDisplay:10.37,2013-01-09 00:25:00,
2013-01-08 19:30:00,76.6,72.4,30.15,ESE,112,6.0,0.0,87,0.00,CLR,,0.17,WeatherDisplay:10.37,2013-01-09 00:30:00,
2013-01-08 19:35:00,76.6,72.4,30.15,ESE,112,6.0,0.0,87,0.00,CLR,,0.17,WeatherDisplay:10.37,2013-01-09 00:35:00,
2013-01-08 19:40:00,76.6,72.4,30.15,ESE,112,6.0,0.0,87,0.00,CLR,,0.17,WeatherDisplay:10.37,2013-01-09 00:40:00,
2013-01-08 19:45:00,76.6,72.4,30.15,ESE,112,6.0,0.0,87,0.00,CLR,,0.17,WeatherDisplay:10.37,2013-01-09 00:45:00,
2013-01-08 19:50:00,76.6,72.4,30.15,ESE,112,6.0,0.0,87,0.00,CLR,,0.17,WeatherDisplay:10.37,2013-01-09 00:50:00,
2013-01-08 19:55:00,76.6,72.4,30.15,ESE,112,6.0,0.0,87,0.00,CLR,,0.17,WeatherDisplay:10.37,2013-01-09 00:55:00,
2013-01-08 20:00:00,76.6,72.4,30.15,ESE,112,6.0,0.0,87,0.00,CLR,,0.17,WeatherDisplay:10.37,2013-01-09 01:00:00,
2013-01-08 20:05:00,76.6,72.4,30.15,ESE,112,6.0,0.0,87,0.00,CLR,,0.17,WeatherDisplay:10.37,2013-01-09 01:05:00,
2013-01-08 20:10:00,76.6,72.4,30.15,ESE,112,6.0,0.0,87,0.00,CLR,,0.17,WeatherDisplay:10.37,2013-01-09 01:10:00,
2013-01-08 20:15:00,76.6,72.4,30.15,ESE,112,6.0,0.0,87,0.00,CLR,,0.17,WeatherDisplay:10.37,2013-01-09 01:15:00,
2013-01-08 20:20:00,76.6,72.4,30.15,ESE,112,6.0,0.0,87,0.00,CLR,,0.17,WeatherDisplay:10.37,2013-01-09 01:20:00,
2013-01-08 20:25:00,76.6,72.4,30.15,ESE,112,6.0,0.0,87,0.00,CLR,,0.17,WeatherDisplay:10.37,2013-01-09 01:25:00,
2013-01-08 20:30:00,76.6,72.4,30.15,ESE,112,6.0,0.0,87,0.00,CLR,,0.17,WeatherDisplay:10.37,2013-01-09 01:30:00,
2013-01-08 20:35:00,76.6,72.4,30.15,ESE,112,6.0,0.0,87,0.00,CLR,,0.17,WeatherDisplay:10.37,2013-01-09 01:35:00,
2013-01-08 20:40:00,76.6,72.4,30.15,ESE,112,6.0,0.0,87,0.00,CLR,,0.17,WeatherDisplay:10.37,2013-01-09 01:40:00,
2013-01-08 20:45:00,76.6,72.4,30.15,ESE,112,6.0,0.0,87,0.00,CLR,,0.17,WeatherDisplay:10.37,2013-01-09 01:45:00,
2013-01-08 20:50:00,76.6,72.4,30.15,ESE,112,6.0,0.0,87,0.00,CLR,,0.17,WeatherDisplay:10.37,2013-01-09 01:50:00,
2013-01-08 20:55:00,76.6,72.4,30.15,ESE,112,6.0,0.0,87,0.00,CLR,,0.17,WeatherDisplay:10.37,2013-01-09 01:55:00,
2013-01-08 21:00:00,76.6,72.4,30.15,ESE,112,6.0,0.0,87,0.00,CLR,,0.17,WeatherDisplay:10.37,2013-01-09 02:00:00,
2013-01-08 21:05:00,76.6,72.4,30.15,ESE,112,6.0,0.0,87,0.00,CLR,,0.17,WeatherDisplay:10.37,2013-01-09 02:05:00,
2013-01-08 21:10:00,76.6,72.4,30.15,ESE,112,6.0,0.0,87,0.00,CLR,,0.17,WeatherDisplay:10.37,2013-01-09 02:10:00,
2013-01-08 21:15:00,76.6,72.4,30.15,ESE,112,6.0,0.0,87,0.00,CLR,,0.17,WeatherDisplay:10.37,2013-01-09 02:15:00,
2013-01-08 21:19:00,76.5,72.7,30.15,SSE,158,13.0,0.0,88,0.00,CLR,,0.17,WeatherDisplay:10.37,2013-01-09 02:19:00,
2013-01-08 21:20:00,76.5,72.7,30.15,SSE,158,13.0,0.0,88,0.00,CLR,,0.17,WeatherDisplay:10.37,2013-01-09 02:20:00,
2013-01-08 21:25:00,76.5,72.7,30.15,SSE,158,13.0,0.0,88,0.00,CLR,,0.17,WeatherDisplay:10.37,2013-01-09 02:25:00,
2013-01-08 21:41:00,76.5,72.7,30.15,SSE,158,13.0,0.0,88,0.00,CLR,,0.17,WeatherDisplay:10.37,2013-01-09 02:41:00,
2013-01-08 21:46:00,76.3,72.8,30.16,SE,135,13.0,13.0,89,0.00,RA,,0.17,WeatherDisplay:10.37,2013-01-09 02:46:00,
2013-01-08 21:51:00,76.3,72.8,30.16,ESE,112,12.7,12.7,89,0.00,RA,,0.17,WeatherDisplay:10.37,2013-01-09 02:51:00,
2013-01-08 21:56:00,76.3,73.1,30.16,ESE,112,8.8,8.8,90,0.00,CLR,,0.17,WeatherDisplay:10.37,2013-01-09 02:56:00,
2013-01-08 22:01:00,76.3,73.1,30.16,ESE,112,13.8,13.8,90,0.00,CLR,,0.17,WeatherDisplay:10.37,2013-01-09 03:01:00,
2013-01-08 22:06:00,76.3,73.1,30.16,SSE,158,13.5,13.5,90,0.00,CLR,,0.17,WeatherDisplay:10.37,2013-01-09 03:06:00,
2013-01-08 22:11:00,76.5,73.3,30.16,SE,135,9.2,9.2,90,0.00,CLR,,0.17,WeatherDisplay:10.37,2013-01-09 03:11:00,
2013-01-08 22:16:00,76.5,73.3,30.17,ESE,112,6.9,6.9,90,0.00,CLR,,0.17,WeatherDisplay:10.37,2013-01-09 03:16:00,
2013-01-08 22:21:00,76.5,73.0,30.17,SSE,158,9.2,9.2,89,0.00,CLR,,0.17,WeatherDisplay:10.37,2013-01-09 03:21:00,
2013-01-08 22:26:00,76.6,73.1,30.16,SE,135,14.5,14.5,89,0.00,CLR,,0.17,WeatherDisplay:10.37,2013-01-09 03:26:00,
2013-01-08 22:31:00,76.8,73.3,30.16,ESE,112,12.7,12.7,89,0.00,CLR,,0.17,WeatherDisplay:10.37,2013-01-09 03:31:00,
2013-01-08 22:36:00,76.3,73.5,30.16,SSE,158,12.7,12.7,91,0.00,CLR,,0.17,WeatherDisplay:10.37,2013-01-09 03:36:00,
2013-01-08 22:41:00,75.9,73.1,30.17,SE,135,12.7,12.7,91,0.00,CLR,,0.17,WeatherDisplay:10.37,2013-01-09 03:41:00,
2013-01-08 22:46:00,75.4,72.9,30.17,SE,135,13.5,13.5,92,0.00,CLR,,0.17,WeatherDisplay:10.37,2013-01-09 03:46:00,
2013-01-08 22:51:00,75.4,72.6,30.16,SE,135,16.1,16.1,91,0.00,CLR,,0.17,WeatherDisplay:10.37,2013-01-09 03:51:00,
2013-01-08 22:56:00,75.7,72.6,30.16,ESE,112,13.0,13.0,90,0.00,CLR,,0.17,WeatherDisplay:10.37,2013-01-09 03:56:00,
2013-01-08 23:01:00,75.9,72.4,30.16,ESE,112,15.0,15.0,89,0.00,CLR,,0.17,WeatherDisplay:10.37,2013-01-09 04:01:00,
2013-01-08 23:06:00,75.9,72.4,30.17,ESE,112,12.7,12.7,89,0.00,CLR,,0.17,WeatherDisplay:10.37,2013-01-09 04:06:00,
2013-01-08 23:11:00,75.9,72.4,30.17,ESE,112,12.7,12.7,89,0.00,CLR,,0.17,WeatherDisplay:10.37,2013-01-09 04:11:00,
2013-01-08 23:16:00,75.9,72.4,30.17,ESE,112,12.7,12.7,89,0.00,CLR,,0.17,WeatherDisplay:10.37,2013-01-09 04:16:00,
2013-01-08 23:21:00,75.9,72.4,30.17,West,270,12.7,12.7,89,0.00,CLR,,0.17,WeatherDisplay:10.37,2013-01-09 04:21:00,
2013-01-08 23:26:00,76.5,71.7,30.17,SSE,158,13.8,13.8,85,0.00,CLR,,0.17,WeatherDisplay:10.37,2013-01-09 04:26:00,
2013-01-08 23:31:00,76.3,72.1,30.17,South,180,6.9,6.9,87,0.00,CLR,,0.17,WeatherDisplay:10.37,2013-01-09 04:31:00,
2013-01-08 23:36:00,76.1,72.6,30.17,ESE,112,8.1,8.1,89,0.00,CLR,,0.17,WeatherDisplay:10.37,2013-01-09 04:36:00,
2013-01-08 23:41:00,76.1,72.6,30.17,SSE,158,6.9,6.9,89,0.00,CLR,,0.17,WeatherDisplay:10.37,2013-01-09 04:41:00,
2013-01-08 23:46:00,76.1,72.6,30.17,ESE,112,9.2,9.2,89,0.00,CLR,,0.17,WeatherDisplay:10.37,2013-01-09 04:46:00,
2013-01-08 23:51:00,76.1,72.6,30.17,South,180,5.8,5.8,89,0.00,CLR,,0.17,WeatherDisplay:10.37,2013-01-09 04:51:00,
2013-01-08 23:56:00,75.9,72.4,30.17,SE,135,4.6,4.6,89,0.00,CLR,,0.17,WeatherDisplay:10.37,2013-01-09 04:56:00,